COSMOS 374 DEB

Satellite information

Favourite Embed

Satellite Type and Status

DEBRISIN ORBIT

Key statistics

Satellite COSMOS 374 DEB at a glance.

Uptime

19919

Days in orbit

Revolutions

≈ 12.8

Per day

Orbit

LEO

Low Earth Orbit

Inclination

62.9

Latest

Satellite identification and parameters

Extended collection of information and parameters for COSMOS 374 DEB.

Object identification

Identified? True

Debris? True

Object name: COSMOS 374 DEB

International designator: 1970-089BF

Object number (NORAD): 5240

Object ID (CCSDS): 5240

Country: COMMONWEALTH OF INDEPENDENT STATES (CIS)

Current information (Y/N): Y

RCS size: SMALL

Orbital parameters

Period: 112.349 minutes

Inclination: 62.8691 deg

SMA: 7712.695 km

Apoapsis: 1986.762 km

Periapsis: 682.357 km

RAAN: 321.7821 deg

Eccentricy: 0.0845622

Argument of periapsis: 208.2352 deg

Mean anomaly: 147.0242 deg

Mean motion: 12.81721181 rev/day

Mean motion (dot): 0.00000925 rev/day2

B* drag term: 0.00090376 1/REarth

Two-line elements (TLE)

Creation date: May 6, 2025, 3:54 a.m.

Reference frame: TEME

Reference center: EARTH

Epoch: May 5, 2025, 6:32 p.m. UTC

TLE line 0: 0 COSMOS 374 DEB

TLE line 1: 1 05240U 70089BF 25125.77273277 .00000925 00000-0 90376-3 0 9996

TLE line 2: 2 05240 62.8691 321.7821 0845622 208.2352 147.0242 12.81721181499204

Live tracking on map

Real-time ground track for satellite COSMOS 374 DEB.

In-orbit conjunctions

A list of the most updated potential collisions computed for object COSMOS 374 DEB.

Target Orbit TCA Probability of collision Miss distance Type
FENGYUN 1C DEB SSO 2024-06-12 06:21:00 0.0001504626 479.0 (m) DEBRIS

Associated space launch

The I2P satellites were the first soviet coorbital ASAT system.

COSMOS 374 DEB was lifted into orbit during the mission ‘Tsiklon-2 | I2P 4’, on board a Tsiklon-2 space rocket.

The launch took place on Oct. 23, 1970, 4:42 a.m. from 90/20.

For more information about the launch, click the button.

Launch to space Tsiklon-2 | I2P 4
Tsiklon-2 | I2P 4

Agency: N/A

Status: Launch Successful

Launch date: Oct. 23, 1970, 4:42 a.m. UTC

Rocket: Tsiklon-2

Launch pad: 90/20

Location: Baikonur Cosmodrome, Republic of Kazakhstan

...

Latest news about this satellite

There are no fresh news available about this satellite. Check back as we update our databases every day.


Newsletter sign-up

Weekly statistics, charts and insights to help you stay on top of the space industry.